Wind_Speed
25 25 25 25 24 23 22 21 20 19 18 17 16 14 13 12 12 12 12 12 12 12 12 12 12 13 13 13 14 14 14 15 15 16 16 16 17 17 17 18 18 18 18 18 18 18 18 18 19 19 19 20 20 21 21 21 22 22 23 23 24 24 24 25 25 26 26 26 27 27 28 28 29 30 30 30 31 31 31 31 31 31 31 31 31 30
25 25 25 24 24 23 21 20 19 18 17 16 16 15 14 13 12 12 11 11 12 12 12 12 12 12 13 13 13 14 14 14 15 15 15 16 16 16 17 17 17 17 17 17 17 18 18 18 18 19 20 20 21 21 21 22 22 22 22 23 23 23 23 24 24 24 25 25 26 26 27 27 28 28 29 29 29 30 30 30 30 31 31 30 30 30
25 25 25 24 24 23 21 19 18 17 16 16 16 15 14 14 13 13 12 12 12 12 12 12 12 12 12 13 13 13 14 14 15 15 15 16 16 16 17 17 17 17 17 17 17 17 18 18 19 19 20 20 20 21 21 21 21 21 21 21 22 22 22 22 23 23 23 24 24 25 26 26 27 27 28 28 29 29 29 29 30 30 30 30 30 29
25 25 25 24 23 22 21 19 18 17 16 16 15 15 15 15 14 14 13 13 13 12 12 12 12 12 13 13 13 13 14 14 15 15 16 16 16 17 17 17 17 17 17 17 17 17 18 18 19 19 19 20 20 20 20 20 20 20 20 20 20 21 21 21 22 22 23 23 24 24 25 25 26 27 27 28 28 28 29 29 29 29 29 29 29 29
25 24 24 24 23 22 21 19 17 17 16 16 15 15 15 15 15 15 14 14 13 13 13 13 13 13 13 13 14 14 15 15 15 16 16 16 17 17 17 17 17 17 17 17 17 18 18 19 19 19 19 19 19 19 19 19 19 19 19 19 20 20 21 21 22 22 23 23 24 24 25 25 26 26 27 27 28 28 28 28 29 29 29 29 29 29
24 24 24 23 22 21 20 19 17 17 17 16 16 16 16 16 16 15 15 15 14 14 14 14 14 14 14 14 15 15 15 16 16 16 17 17 17 17 17 17 17 17 17 17 18 18 18 19 19 19 19 19 19 19 19 19 19 19 19 19 20 20 21 21 22 22 23 23 24 24 25 25 25 26 26 27 27 27 28 28 28 28 28 28 28 28
24 24 23 22 21 21 20 18 18 18 18 18 17 17 16 16 16 16 16 16 16 16 15 15 15 15 15 15 16 16 16 16 16 16 17 17 17 17 17 17 17 17 17 18 18 19 19 19 19 19 19 19 19 19 19 19 19 19 19 20 20 21 21 22 22 23 23 24 24 24 25 25 26 26 26 26 27 27 27 27 27 27 27 28 28 27
23 23 22 21 21 20 19 18 18 18 18 18 19 19 18 18 17 17 17 18 18 18 17 17 16 16 16 16 16 16 17 17 17 17 17 17 17 17 17 17 17 18 18 19 19 19 19 20 20 19 19 19 19 19 19 19 19 20 20 21 21 21 22 22 23 23 24 24 25 25 25 26 26 26 26 26 26 27 27 27 27 27 27 27 27 27
21 21 21 21 21 21 20 19 18 18 18 19 19 20 20 20 20 20 19 19 19 19 19 18 18 17 17 17 17 17 17 17 17 17 17 17 17 18 18 18 19 19 20 20 20 20 20 20 20 20 20 20 20 20 20 20 20 21 21 21 22 22 23 23 24 24 25 25 26 26 26 27 27 27 27 27 27 27 27 28 28 28 28 27 27 27
20 20 20 21 21 20 21 21 20 19 18 19 19 20 21 22 23 23 23 22 21 21 20 20 19 19 18 18 18 18 18 18 17 17 18 18 19 19 20 20 21 21 21 21 21 21 22 22 21 21 21 21 20 20 21 21 21 21 22 22 23 23 24 24 25 25 26 26 27 27 27 27 27 28 28 28 28 28 28 29 29 29 29 29 28 28
19 19 20 20 20 20 20 21 21 20 20 20 20 20 20 21 23 25 26 26 24 23 22 21 21 21 21 21 20 20 19 19 18 18 18 19 20 21 22 22 23 23 23 23 23 23 23 23 22 22 21 21 21 21 21 21 22 22 23 23 24 24 25 25 26 26 27 27 27 28 28 28 28 28 28 28 28 28 29 29 30 30 30 30 30 30
20 20 20 21 21 22 22 21 21 21 21 21 21 21 22 23 24 26 27 28 27 26 25 24 22 22 22 22 22 22 21 21 21 21 21 21 22 23 24 24 24 24 24 24 24 24 24 23 23 22 22 22 22 22 22 22 22 23 23 24 25 25 26 26 27 27 28 28 28 28 29 29 29 29 29 29 29 29 29 29 30 30 31 31 31 31
20 20 20 21 21 22 23 23 22 22 21 20 21 22 25 26 26 26 27 27 27 27 27 26 25 24 23 23 23 23 23 23 23 24 24 25 26 27 27 27 27 27 26 26 25 25 25 24 24 23 23 22 22 22 23 23 23 24 25 25 26 26 27 27 28 28 28 29 29 29 29 29 29 29 29 29 29 29 29 29 29 30 30 31 31 31
20 19 20 20 21 21 22 22 22 21 20 20 22 24 26 27 27 27 27 27 27 27 27 27 27 26 25 23 23 24 25 26 26 27 27 28 28 29 30 30 30 29 28 28 27 26 26 25 25 24 23 23 23 23 24 24 25 25 26 26 27 27 28 28 28 29 29 29 29 29 29 29 29 29 29 29 29 29 29 29 29 30 30 31 31 31
18 18 19 21 22 21 21 20 20 20 21 22 24 25 26 27 27 26 26 27 27 28 28 29 29 28 26 24 24 24 26 28 29 30 31 30 30 30 31 32 31 30 29 29 28 28 27 26 26 25 24 24 24 25 25 26 26 27 27 28 28 28 29 29 29 29 29 29 29 29 30 30 30 30 30 30 30 30 29 29 29 30 30 31 31 31
17 18 19 21 22 21 20 20 20 21 23 24 25 25 26 26 26 25 25 26 27 29 29 30 31 30 28 24 23 25 27 29 31 33 34 33 32 31 32 33 33 32 30 30 29 29 28 27 26 26 26 26 26 26 26 27 27 28 28 28 29 29 29 29 29 29 29 29 30 30 30 30 30 31 30 30 30 30 30 30 30 30 31 31 31 31
17 18 20 21 22 21 20 20 21 23 24 25 25 25 24 24 24 24 25 25 27 27 27 28 29 30 30 28 26 25 28 31 33 35 36 36 34 32 32 33 33 33 31 31 30 30 29 28 28 27 27 27 27 27 28 28 28 28 29 29 29 29 29 29 29 29 30 30 30 30 31 31 31 31 31 31 31 31 30 30 30 31 31 31 31 31
19 20 20 20 20 21 22 23 24 24 24 24 24 24 24 24 23 23 24 24 25 25 26 25 25 27 29 31 29 28 30 33 35 37 38 38 36 34 33 33 33 33 33 32 31 30 30 29 29 29 28 28 28 28 29 29 29 29 29 29 29 29 29 29 30 30 30 31 31 31 31 31 31 31 31 31 31 31 31 31 31 31 31 31 31 31
21 21 20 19 20 22 24 25 25 24 23 23 23 24 24 24 24 23 24 24 24 24 25 25 25 26 28 31 31 31 32 34 36 38 39 40 38 35 33 33 34 34 34 33 32 31 31 30 30 30 30 30 30 30 30 29 29 29 29 29 29 29 29 30 30 31 31 32 32 32 32 32 32 32 31 31 31 31 31 31 31 31 31 31 31 31
21 20 19 20 22 23 24 24 23 22 21 22 22 24 25 25 24 24 24 24 24 24 24 25 26 27 29 32 33 34 33 35 37 38 39 40 39 36 34 34 34 34 35 34 33 32 32 32 32 32 32 31 31 31 30 30 30 29 29 29 29 30 30 31 31 32 32 32 32 32 32 32 32 31 31 31 31 31 31 31 31 31 32 32 32 32
20 20 20 20 21 23 24 23 21 20 20 21 23 24 25 25 25 25 24 23 23 24 24 26 27 30 32 35 36 35 34 35 36 36 38 39 39 37 35 34 34 35 35 35 34 33 33 34 34 34 34 33 33 32 31 30 30 29 29 29 30 30 31 32 32 33 33 33 33 33 32 32 32 32 31 31 31 31 32 32 32 32 32 33 33 33
19 19 20 20 21 21 21 21 20 19 20 22 23 24 25 25 25 25 24 23 23 25 27 29 31 34 35 37 37 36 34 33 33 33 35 38 38 37 35 34 34 35 36 35 35 34 35 35 36 36 35 34 33 32 31 30 30 29 30 30 31 32 32 33 33 33 33 33 33 32 32 32 32 32 32 32 31 32 32 32 32 32 33 33 34 34
19 19 20 20 20 20 19 19 19 20 21 23 24 25 24 24 24 23 23 23 25 28 31 34 36 36 37 37 36 35 33 31 31 31 32 34 37 37 35 34 33 34 35 36 35 36 36 37 37 37 36 35 34 32 31 30 30 30 31 31 32 32 33 33 33 33 33 32 32 32 32 31 31 31 31 31 31 31 31 32 32 32 33 33 34 34
19 20 20 20 19 19 18 18 19 21 22 23 24 24 23 23 23 23 24 26 29 32 34 36 38 38 37 36 35 34 32 30 30 30 30 32 34 36 35 33 33 34 35 36 36 36 37 38 38 37 36 35 33 31 30 30 30 31 32 32 32 33 33 32 32 32 32 32 31 31 31 31 31 31 30 30 30 31 31 31 31 32 32 33 33 34
19 20 20 20 19 18 17 17 18 20 22 23 24 23 22 22 23 25 28 29 31 33 34 36 37 37 36 35 34 34 32 30 29 29 29 31 34 35 34 32 32 33 36 37 37 36 37 38 38 37 36 34 32 31 30 31 31 32 32 33 32 32 32 32 32 31 31 31 31 31 31 31 31 31 31 31 31 31 31 31 32 32 32 33 33 34
18 20 20 20 18 16 16 17 19 21 23 23 23 22 21 23 25 27 29 30 31 32 34 35 36 36 35 35 35 34 33 31 30 29 29 30 32 34 33 32 32 34 36 38 37 37 37 38 38 37 35 33 31 31 31 31 32 33 33 33 32 32 31 31 31 31 31 31 31 31 31 31 31 31 31 32 32 32 32 32 32 33 33 34 34 35
19 20 20 19 18 17 18 20 21 22 22 22 20 20 21 23 25 28 29 30 31 32 33 33 34 35 35 35 35 34 34 33 31 29 27 28 30 32 33 33 33 34 36 38 38 37 36 36 36 35 34 32 31 31 32 33 33 33 33 33 32 32 31 31 31 31 31 31 31 31 31 31 31 32 32 32 32 32 32 33 33 33 33 34 35 36
19 19 20 19 19 19 20 20 21 20 20 19 19 19 21 23 26 29 31 31 31 32 32 32 32 33 34 34 35 35 34 33 30 27 25 26 27 30 33 33 34 34 35 37 38 37 36 34 34 33 32 31 31 32 33 34 34 34 34 33 32 31 31 31 31 31 31 31 31 31 31 31 31 32 32 32 32 32 32 33 33 33 33 34 35 36
19 19 19 19 18 19 19 19 19 18 18 18 19 20 22 25 28 30 31 30 30 31 31 31 31 31 32 34 35 36 35 32 28 25 25 25 28 31 33 33 33 33 34 37 38 38 35 32 30 30 30 30 31 33 34 35 35 35 34 33 32 31 31 31 31 31 31 31 31 31 31 31 31 32 32 32 32 32 32 32 32 33 33 34 35 36
19 19 19 18 18 18 19 18 18 18 18 19 20 22 24 26 28 29 29 29 29 29 29 30 30 30 31 32 34 34 33 29 26 24 25 27 30 33 34 33 33 32 32 33 35 36 35 33 30 28 28 31 33 35 36 36 35 34 34 33 32 32 31 31 31 31 31 31 31 31 32 32 32 32 32 32 32 32 32 32 32 33 33 34 35 36
21 20 20 19 19 19 19 19 19 19 19 20 22 23 24 25 26 27 27 27 27 27 27 28 29 29 29 29 30 31 31 29 27 27 27 28 31 33 33 33 32 31 30 29 30 31 34 35 34 31 30 32 34 36 36 35 34 33 33 33 33 32 32 31 31 32 32 32 32 32 32 32 33 33 33 33 33 33 33 32 32 32 33 34 35 36
21 21 21 21 21 20 20 20 20 20 20 21 22 23 24 25 25 25 25 25 25 25 26 27 28 28 28 28 28 30 32 32 30 29 29 29 31 32 32 31 31 31 30 29 28 28 29 34 37 37 35 34 34 35 35 34 33 33 32 32 32 32 32 31 32 32 33 33 33 33 33 33 34 33 33 33 33 33 32 32 31 31 32 33 35 36
23 23 22 22 22 21 21 20 20 20 21 21 22 23 23 24 24 24 24 24 24 25 25 26 27 28 28 29 31 33 34 33 31 29 28 29 30 31 32 31 31 32 32 31 29 28 29 33 37 38 37 36 34 33 34 33 33 32 31 31 31 32 32 32 33 34 34 34 35 35 34 34 34 34 34 33 33 33 32 31 30 30 30 32 33 35
24 24 24 24 23 22 21 20 20 21 21 22 22 23 23 23 23 23 24 24 24 25 25 26 26 27 29 30 32 34 34 32 30 28 28 28 30 31 31 31 31 32 32 32 30 30 31 33 35 36 37 37 36 34 33 32 32 31 30 30 31 32 33 34 35 35 36 35 35 35 35 35 35 35 34 34 33 33 32 31 30 30 30 31 32 33
25 25 25 24 23 22 21 21 20 21 21 22 22 23 23 23 23 23 23 24 24 25 25 26 26 27 28 29 32 33 34 32 29 27 27 27 27 29 30 31 30 30 31 32 32 32 33 33 33 34 36 38 38 36 34 31 31 31 31 31 31 32 34 36 36 36 36 36 36 36 35 35 35 34 34 34 33 33 32 32 31 31 31 31 31 31
26 25 25 24 23 22 22 21 21 21 21 22 22 22 23 23 23 23 23 24 24 25 25 26 26 26 27 28 30 31 32 30 28 26 25 24 25 26 29 30 29 29 30 32 32 32 33 34 35 35 35 36 37 37 35 34 33 32 32 32 33 34 35 36 36 36 36 36 36 36 35 35 34 34 34 34 34 33 33 33 33 32 32 32 32 32
27 26 25 24 23 23 22 22 22 22 22 22 22 22 22 22 22 23 23 24 24 25 25 25 26 26 26 27 28 29 29 29 27 26 24 22 22 24 27 28 28 28 29 31 32 33 34 35 36 36 34 34 34 34 36 37 36 35 35 34 34 35 36 36 36 35 35 35 35 35 35 35 35 35 35 35 35 35 34 34 34 33 33 32 32 32
27 27 25 24 23 23 23 22 22 22 22 22 22 22 22 22 22 23 23 24 24 25 25 25 25 25 26 26 27 27 27 27 26 24 22 21 21 22 24 26 27 27 27 28 30 31 32 34 35 36 35 36 36 36 37 37 37 37 37 36 36 35 35 35 34 35 35 36 36 36 36 36 36 36 36 36 36 36 36 36 35 34 33 33 33 33
27 26 25 24 23 23 23 23 23 22 22 22 22 22 23 23 23 23 24 24 25 25 25 25 25 25 25 25 26 26 26 25 24 23 21 20 20 20 22 24 26 27 26 27 28 29 31 32 34 36 37 38 39 40 39 38 37 38 38 38 38 37 35 34 34 35 36 36 37 37 37 37 36 36 36 36 37 37 37 36 36 35 35 35 35 35
27 26 25 24 23 23 23 23 23 22 22 22 22 23 23 23 24 24 25 25 25 25 25 25 25 25 25 25 25 25 24 24 23 22 21 20 19 20 21 23 25 26 27 27 28 29 31 33 35 36 36 37 39 41 40 39 38 38 38 38 38 38 38 37 37 37 37 37 37 37 37 37 36 37 37 37 36 36 36 36 36 37 36 36 36 36
26 25 24 23 23 23 23 23 23 22 22 22 22 23 23 23 24 25 25 25 26 25 25 25 25 26 26 25 25 24 23 23 22 21 20 20 20 20 21 22 24 25 27 28 29 30 31 33 35 37 37 37 40 42 42 41 40 39 38 38 39 40 41 41 39 37 37 36 36 36 37 37 36 37 38 38 38 38 38 38 38 38 37 36 36 37
25 24 23 23 23 22 22 22 22 22 22 22 22 22 23 23 24 25 26 26 26 26 25 25 25 26 26 26 25 24 23 22 21 21 21 20 20 20 21 22 23 24 26 28 29 31 31 33 34 35 35 37 39 41 41 42 41 40 39 38 39 41 42 42 39 37 35 36 37 38 38 39 40 41 41 41 41 41 40 40 40 39 37 37 38 38
23 23 23 22 22 22 22 22 22 22 22 22 22 22 23 23 24 25 26 26 26 26 25 25 25 25 25 26 26 25 23 22 22 21 21 21 21 21 22 23 23 24 25 28 30 32 33 33 34 35 36 36 38 40 43 43 43 41 39 38 37 38 40 41 41 40 38 38 38 39 40 40 40 41 41 42 42 42 41 41 39 38 37 37 38 39
23 23 22 22 22 22 22 22 21 21 21 21 22 22 23 23 24 25 25 25 25 25 24 24 24 24 25 25 26 25 25 23 23 22 22 22 22 22 23 24 24 25 25 27 30 32 34 34 34 34 34 36 37 39 41 42 43 42 41 39 38 38 39 41 42 41 41 41 41 41 41 40 41 41 42 42 43 43 42 40 40 40 39 39 40 40
23 22 22 22 22 22 22 21 21 21 21 21 22 22 23 23 23 24 24 24 24 23 23 23 23 23 24 25 26 26 26 25 24 24 23 23 23 23 24 24 25 26 26 27 29 31 33 34 35 36 36 37 38 39 40 41 42 43 42 40 38 38 39 40 42 42 42 41 41 41 41 41 41 42 43 44 43 43 43 43 43 43 42 42 41 40
23 23 23 22 22 21 21 21 21 21 21 22 22 22 23 23 23 23 23 23 22 22 22 22 22 22 24 25 26 26 27 27 27 26 25 25 25 25 25 25 26 26 27 28 29 31 32 33 35 36 36 38 39 40 39 40 41 41 41 40 39 39 40 42 43 43 42 42 42 42 42 41 41 42 43 44 44 44 44 44 44 43 44 43 43 43
23 23 23 22 21 20 20 20 20 20 21 22 22 22 23 23 23 22 22 21 21 20 20 20 21 22 23 24 25 26 27 28 29 29 28 27 27 27 27 27 27 27 28 29 30 31 32 33 34 35 35 37 40 41 41 41 40 39 40 40 40 40 41 42 43 43 42 42 42 42 42 42 41 42 44 44 44 44 45 44 44 43 43 43 43 43
22 22 21 21 20 19 19 19 20 20 21 22 22 22 22 22 22 21 20 20 19 19 19 20 21 22 23 23 24 24 25 27 29 29 30 29 29 30 30 30 29 29 30 31 31 32 32 32 32 32 33 35 38 41 42 41 39 39 40 39 40 41 41 41 42 42 42 42 42 42 42 41 41 42 42 43 45 46 46 46 45 44 43 42 43 43
21 20 20 19 19 18 19 19 19 20 21 22 22 22 22 22 21 20 19 18 18 18 19 20 21 22 23 24 24 24 25 26 28 29 30 30 31 31 31 31 32 32 32 32 32 32 32 32 31 31 30 31 33 37 40 41 40 39 39 38 38 40 41 41 41 41 42 42 42 43 42 42 42 41 42 43 45 47 48 48 47 46 44 42 42 42
19 19 18 18 18 18 18 19 19 20 21 22 22 22 21 20 20 19 18 17 17 18 18 19 20 22 23 24 24 24 25 26 28 29 29 30 31 32 32 32 32 32 33 33 33 32 32 32 31 29 27 26 27 31 35 39 40 40 39 37 37 37 38 39 40 41 41 41 41 42 43 43 43 42 41 43 45 47 48 49 48 47 44 42 42 42
18 17 17 17 17 17 18 18 19 20 21 21 21 21 20 19 18 18 17 17 17 17 18 19 20 21 22 24 24 24 25 26 28 29 30 30 31 32 33 32 32 32 33 34 34 33 32 31 31 30 28 26 24 25 29 33 36 38 38 38 37 36 37 38 40 40 40 41 41 42 43 44 43 43 42 42 43 45 47 48 48 47 45 43 42 42
Wind_Direction
298 298 298 297 296 295 293 293 292 291 289 289 288 288 288 289 288 289 290 289 289 287 286 286 285 284 284 283 283 283 284 284 284 285 285 286 287 287 288 289 290 291 291 292 292 291 291 291 290 290 290 290 290 290 290 290 290 290 289 289 289 290 290 290 290 290 291 291 291 290 290 290 290 290 290 290 290 290 290 290 289 289 289 288 288 287
296 296 295 294 294 292 291 291 291 292 293 293 293 294 294 293 291 290 290 290 290 290 289 288 287 286 285 285 285 285 285 285 285 286 287 288 289 290 291 292 293 293 293 293 293 292 292 291 291 291 290 290 290 290 290 290 289 289 289 289 289 289 289 289 289 290 290 290 290 290 290 290 290 290 290 290 290 289 289 289 288 288 288 287 287 286
294 294 293 292 292 291 289 289 291 294 297 298 299 299 300 299 297 296 296 295 294 294 294 293 291 289 288 288 289 289 289 289 290 291 292 293 294 294 295 296 296 296 295 295 294 293 292 292 291 291 291 291 291 291 291 290 290 290 289 289 289 289 289 290 290 290 290 290 290 291 291 291 291 290 290 290 290 289 289 288 288 287 287 286 286 285
293 292 291 291 290 289 288 290 293 297 299 301 302 302 302 302 302 302 302 301 300 298 298 298 296 294 293 294 295 296 296 296 297 297 298 298 299 299 299 299 299 298 297 296 295 295 294 293 293 293 293 293 292 292 292 292 292 292 291 291 291 291 291 291 291 292 292 292 292 291 291 291 291 291 291 290 290 289 289 288 288 287 287 286 285 284
292 291 291 291 290 288 288 291 296 299 301 303 304 305 305 306 306 306 305 304 304 303 303 303 302 302 301 302 303 303 303 303 303 303 303 303 302 302 301 301 300 299 298 298 297 297 296 296 296 296 296 296 296 296 296 296 295 295 295 294 294 294 294 294 294 294 294 293 293 293 293 292 292 291 291 291 290 290 289 288 288 287 286 285 284 284
291 291 291 291 291 290 290 294 300 304 305 305 305 306 308 308 309 309 309 309 309 309 309 309 310 310 310 310 310 309 309 308 307 307 306 305 304 303 302 301 301 300 300 300 300 300 300 300 301 301 301 301 301 301 300 300 299 298 298 297 297 297 297 296 296 296 296 296 295 295 294 293 293 292 291 291 290 290 289 288 288 287 286 285 284 284
290 291 291 291 291 292 293 298 304 310 312 311 309 307 308 309 311 313 314 314 314 313 313 312 313 313 313 313 313 312 310 309 308 307 306 305 304 303 302 302 302 303 304 304 305 305 306 306 306 306 306 306 306 305 304 303 302 301 300 300 300 299 299 299 299 299 299 298 298 297 296 295 294 293 292 291 291 290 289 288 287 285 284 284 283 283
290 292 293 295 295 296 297 300 307 314 317 316 314 312 311 312 314 316 316 316 316 316 315 314 313 313 315 316 315 314 312 311 309 308 307 306 305 304 305 305 307 308 309 310 311 312 312 312 312 312 311 311 309 308 307 306 304 303 303 302 302 302 302 302 302 302 301 301 300 299 298 297 296 295 294 294 293 292 291 290 288 286 285 285 284 283
293 295 297 299 301 302 302 303 309 315 318 319 319 319 319 319 318 318 317 317 318 318 318 317 315 314 316 318 318 317 315 314 313 312 310 310 309 310 311 311 313 314 315 316 316 316 316 316 316 315 314 313 312 311 309 307 307 306 305 305 305 305 305 305 305 304 304 303 302 301 300 300 299 299 298 298 297 296 295 293 292 290 288 287 286 284
296 298 300 300 301 303 306 309 312 316 319 322 323 324 324 323 321 320 318 318 319 320 320 319 318 316 317 318 319 319 318 316 316 315 315 315 315 316 317 317 318 319 319 319 320 320 319 319 318 318 317 315 314 312 311 309 308 308 308 307 307 307 307 307 306 306 305 305 304 304 303 303 302 302 301 300 299 298 297 296 294 293 291 289 287 285
299 301 301 302 302 303 305 310 315 318 321 324 325 324 324 322 322 322 320 320 321 321 321 321 321 320 320 321 321 321 321 320 318 318 318 319 319 320 320 321 322 322 322 322 322 321 321 321 320 319 318 316 315 313 312 310 310 310 309 309 309 309 309 308 308 308 307 307 307 306 306 305 304 303 302 301 299 298 297 295 294 293 292 290 288 286
302 303 303 304 306 308 310 313 316 320 324 326 324 321 319 321 323 323 321 321 322 323 323 322 322 323 324 325 325 325 324 324 323 322 322 322 323 323 323 323 323 323 323 323 322 322 322 321 320 319 318 317 315 314 312 312 311 311 311 311 311 310 310 310 310 310 309 309 308 308 307 305 304 303 301 300 299 297 296 295 293 292 291 290 289 288
304 305 305 306 308 311 315 317 320 323 325 324 321 317 316 319 323 323 322 321 322 324 324 323 322 323 326 328 329 329 329 328 326 325 325 325 325 326 325 325 324 324 324 324 323 323 323 322 321 319 318 317 315 314 313 313 312 312 312 312 312 312 312 312 312 311 310 309 308 307 306 305 304 303 302 300 299 298 296 295 293 292 291 290 289 288
305 306 306 306 307 310 314 317 320 322 321 317 314 313 315 318 321 322 322 323 323 324 324 324 324 325 328 331 332 332 332 330 328 326 325 325 325 326 326 325 324 324 325 324 323 323 323 322 321 320 319 317 316 315 315 314 314 314 315 315 314 314 314 313 312 311 310 309 308 307 306 305 304 304 303 302 301 299 298 296 294 292 291 290 289 288
306 306 305 304 305 308 311 315 316 316 313 311 310 313 315 318 320 323 324 325 326 327 328 327 326 326 328 332 334 334 332 330 328 326 324 324 325 326 325 324 323 323 324 323 323 323 323 323 322 321 319 319 318 317 317 317 316 316 316 316 315 315 314 313 312 311 309 309 308 307 307 306 305 305 304 303 301 300 298 297 295 293 292 291 290 289
301 300 299 300 303 307 309 311 311 308 306 307 309 312 315 318 321 324 326 327 328 330 330 329 327 327 327 330 333 333 331 329 326 324 322 322 323 325 325 324 323 322 323 323 323 323 323 323 322 321 320 320 319 319 318 318 318 317 317 316 315 314 313 312 311 310 309 309 308 308 307 307 306 306 304 303 302 300 299 297 295 293 292 291 290 289
293 291 292 297 301 305 305 305 304 302 303 306 310 314 317 320 323 325 327 328 329 329 327 327 325 324 324 327 330 331 329 326 324 322 320 320 321 323 325 323 322 322 322 322 323 323 324 323 322 321 321 320 320 319 319 319 318 317 316 315 314 313 312 311 311 310 309 309 309 308 308 307 307 306 305 303 302 300 299 297 295 293 292 291 291 290
283 285 290 296 298 299 300 300 301 303 305 309 312 315 318 320 322 325 326 327 326 325 323 321 319 318 318 320 324 327 326 323 321 320 319 318 320 322 324 323 323 322 322 322 323 323 323 323 322 321 321 320 320 320 319 319 318 317 316 315 314 313 312 311 311 310 310 309 309 309 309 308 307 306 305 304 302 301 299 297 295 294 293 293 292 291
278 284 289 292 293 295 298 300 302 305 308 311 315 317 319 321 323 324 326 326 324 321 318 315 312 311 311 313 318 323 324 321 319 318 317 317 318 321 323 323 323 322 321 321 322 323 323 322 321 320 320 320 320 320 320 319 318 317 316 315 314 313 312 311 311 311 310 310 310 310 309 309 308 307 305 304 302 301 299 298 297 296 296 295 294 292
279 283 285 287 291 295 298 301 304 307 311 314 316 317 319 321 323 325 325 322 319 317 313 310 307 306 307 310 314 319 322 321 318 316 315 315 317 320 323 324 323 321 320 321 322 322 322 321 320 320 320 321 321 321 321 320 319 318 317 316 314 313 313 312 312 312 312 311 311 311 310 310 309 307 306 304 303 301 300 299 298 297 296 295 293 292
278 280 282 288 293 296 298 302 306 310 314 316 316 315 317 322 323 323 321 319 315 310 306 303 302 303 306 308 313 317 320 319 317 316 315 315 316 318 322 323 321 319 318 319 321 321 321 320 319 320 320 321 322 322 322 321 320 318 317 316 315 314 314 314 313 313 313 313 313 313 312 311 310 308 306 305 303 301 299 298 296 294 292 291 290 289
278 282 287 292 295 297 300 304 310 314 315 314 313 313 317 321 322 320 317 314 308 303 299 297 299 302 306 308 312 316 318 317 316 315 315 313 314 317 321 321 319 317 316 318 320 320 319 319 318 319 320 321 322 323 322 321 320 319 318 317 316 316 315 315 315 315 315 315 314 313 312 311 309 308 306 303 301 299 296 294 292 290 289 287 287 286
281 285 290 294 297 299 303 309 313 314 314 312 311 312 315 318 317 314 311 304 298 294 293 296 299 303 305 308 311 314 317 317 317 316 313 310 310 314 319 320 318 315 315 317 318 318 317 317 317 318 320 321 322 322 322 321 320 319 319 318 317 317 316 316 316 315 315 314 313 312 311 309 307 305 303 301 299 297 295 293 291 290 289 288 287 286
285 288 292 296 299 303 308 312 314 313 311 308 307 308 310 310 307 301 294 289 287 288 291 296 300 302 305 309 312 314 317 318 317 315 312 307 308 312 317 318 316 314 314 315 316 316 315 315 316 318 320 321 322 322 322 321 320 320 319 318 317 317 316 315 315 314 313 312 311 310 308 307 305 304 302 301 299 298 297 295 294 293 292 291 290 289
289 292 295 298 302 306 310 310 306 300 296 294 295 297 298 294 288 283 280 281 284 289 295 298 301 303 307 311 313 315 317 317 316 314 311 308 308 311 314 316 315 313 313 314 314 314 313 314 315 317 319 321 322 322 322 321 320 319 318 317 316 315 314 313 312 312 311 310 309 308 307 306 305 304 303 302 300 299 298 297 296 296 294 293 292 291
290 293 296 297 298 296 292 285 280 278 279 281 283 284 282 279 279 280 283 287 291 296 300 302 304 306 309 312 313 315 316 316 314 313 312 310 309 310 313 315 315 313 311 312 313 313 313 313 315 317 319 321 322 322 321 320 320 319 317 316 314 313 312 312 311 311 310 310 309 308 307 306 305 303 302 301 299 298 297 296 296 295 294 294 293 291
286 288 288 287 284 280 276 275 275 277 279 281 281 280 279 280 283 286 290 295 300 303 304 303 303 305 308 309 311 312 314 313 314 314 315 313 309 308 311 314 314 312 310 311 312 312 312 313 315 318 320 321 321 321 320 319 318 317 316 314 313 312 312 312 312 312 311 310 309 307 305 304 302 301 299 298 297 296 295 294 294 294 294 293 292 291
281 281 280 279 279 280 282 284 286 287 288 288 288 288 288 289 292 294 297 302 304 304 302 300 300 302 304 306 308 310 312 313 315 317 316 314 308 305 309 312 312 311 311 311 312 313 313 313 316 318 320 320 319 318 317 317 316 316 315 314 314 314 314 313 313 312 310 308 306 305 303 302 300 299 298 296 295 295 294 294 293 293 293 292 291 290
279 280 280 282 285 288 291 292 292 292 293 294 295 295 296 296 296 297 299 302 302 300 299 298 298 299 301 304 307 309 310 313 316 318 316 312 306 304 309 311 312 312 313 314 315 315 313 313 315 317 318 317 315 315 315 316 316 317 317 316 316 315 314 313 312 311 309 307 305 303 302 301 300 298 297 296 295 294 294 293 293 293 292 291 290 289
282 284 286 289 293 296 297 297 296 296 297 298 299 299 298 297 296 296 298 299 298 297 296 296 297 298 300 303 305 307 308 312 314 314 312 309 306 306 309 311 311 312 314 315 316 315 313 313 314 314 314 313 312 313 315 317 318 318 317 317 316 314 313 313 311 310 308 306 304 303 302 300 299 297 296 295 294 294 293 293 292 291 290 289 288 287
288 291 294 297 299 300 300 299 298 298 299 299 299 298 297 296 296 295 296 296 296 295 295 295 296 296 297 299 300 300 302 307 310 310 310 308 306 307 309 310 310 311 313 313 313 312 312 312 312 312 312 312 312 314 316 317 317 317 316 315 314 313 312 312 311 310 308 306 304 302 300 299 298 297 296 295 294 293 293 292 291 290 289 288 287 286
290 292 296 298 300 300 298 297 297 297 298 298 298 297 297 296 296 296 296 296 296 296 295 295 295 296 296 295 294 294 298 304 308 310 310 308 306 306 308 308 308 309 311 311 309 306 305 307 309 312 312 312 312 314 315 315 315 315 314 313 312 311 311 311 310 308 306 304 302 301 299 298 298 297 296 296 295 294 293 292 291 290 288 287 286 286
286 290 295 297 298 297 297 296 296 297 297 297 297 297 296 296 297 297 297 297 297 296 296 295 295 296 296 295 294 295 299 304 308 310 310 307 305 305 306 307 307 309 311 311 308 304 300 301 305 309 311 311 311 311 312 313 314 314 313 312 310 310 310 309 308 306 305 303 302 301 300 300 299 298 298 297 296 295 294 293 292 290 289 287 286 286
284 289 293 295 296 296 296 296 296 297 297 297 296 296 296 296 297 297 298 298 297 297 296 295 295 295 295 295 296 297 300 304 308 310 308 306 304 305 307 307 308 309 311 310 309 306 303 302 303 306 308 310 310 310 311 312 313 313 311 309 308 307 308 308 307 306 305 303 302 301 301 301 301 300 299 298 297 296 295 294 293 291 289 287 286 286
284 289 292 294 295 295 295 296 296 296 296 296 296 296 296 297 297 298 298 299 299 298 297 296 295 294 294 293 294 296 300 305 308 309 307 306 305 306 307 307 307 308 309 308 307 306 304 303 304 305 306 308 309 310 310 311 311 310 309 307 306 306 306 308 308 307 306 304 303 302 302 301 301 300 299 298 298 297 296 294 292 290 287 285 283 283
286 290 292 293 294 294 295 295 296 296 296 296 296 296 296 296 297 298 299 300 299 299 297 296 295 294 293 293 293 295 300 305 308 308 308 308 308 307 305 305 306 307 307 307 306 305 304 304 305 305 306 306 307 309 310 311 311 309 307 307 307 307 307 308 308 307 306 304 303 302 302 301 300 299 298 297 297 295 294 292 290 288 285 283 280 278
288 290 292 292 293 294 295 295 296 296 296 296 296 296 296 297 298 299 300 300 299 298 297 296 295 295 294 294 294 296 300 304 306 308 309 310 310 307 304 305 306 307 306 305 305 305 305 304 305 305 305 304 303 305 308 311 311 309 308 307 307 307 307 308 308 307 305 303 301 301 300 299 298 297 297 297 296 295 294 292 291 289 287 285 283 280
288 289 290 291 293 294 295 295 296 296 297 296 296 296 296 298 299 300 300 299 299 298 297 296 296 295 295 294 295 296 299 302 304 307 310 311 310 308 306 306 307 308 307 306 305 305 303 302 302 303 303 304 304 304 307 308 309 308 308 308 307 307 306 307 307 306 304 302 300 299 299 299 298 297 297 296 296 296 295 294 294 293 292 291 288 286
287 288 289 291 293 294 294 295 296 297 297 296 296 297 298 299 300 301 301 300 300 299 299 298 297 297 296 295 295 296 298 301 304 307 310 311 312 311 309 308 308 310 312 311 307 303 300 299 298 298 300 302 304 305 307 307 306 307 308 308 308 307 306 306 305 304 303 301 300 299 299 299 299 298 297 297 297 296 295 294 294 295 294 293 291 289
286 287 288 291 292 293 294 295 296 297 296 296 296 297 299 300 302 302 302 301 301 301 301 300 299 299 298 297 298 299 301 303 306 309 312 314 315 315 313 311 311 313 315 314 309 304 299 298 298 298 298 299 300 302 305 304 304 305 307 307 306 305 306 306 305 304 303 301 300 299 299 299 298 298 297 297 296 295 294 293 293 294 294 292 290 289
284 286 288 291 292 293 294 295 296 296 296 296 297 299 301 302 303 303 303 303 302 302 302 302 301 300 300 300 300 302 304 307 310 313 316 318 319 319 318 315 316 316 316 313 309 304 299 298 298 299 298 298 299 301 302 303 303 304 305 303 302 302 305 305 305 304 304 302 300 299 298 298 297 296 297 296 296 296 296 295 294 294 293 291 288 287
284 286 289 290 292 293 294 295 295 295 296 297 298 300 302 303 304 304 304 304 304 304 304 304 303 302 302 302 303 305 308 312 315 317 319 321 323 323 321 319 319 318 316 311 306 303 302 301 299 297 297 298 300 300 301 302 302 302 301 300 301 303 305 305 305 304 302 301 300 299 298 297 297 297 297 298 298 299 299 298 296 294 291 290 288 287
285 287 289 290 291 293 294 294 294 295 296 297 299 301 303 304 304 305 305 305 305 305 305 305 305 305 306 306 308 310 312 315 318 320 322 324 325 325 324 322 321 320 317 310 306 305 306 304 301 298 298 299 299 298 297 300 301 301 300 299 300 301 302 303 304 303 301 299 299 298 298 297 298 298 298 299 299 299 299 298 295 293 290 289 288 288
287 288 289 290 292 293 293 294 294 295 297 298 300 302 303 304 305 306 306 306 306 306 307 307 308 309 311 311 312 314 316 318 320 322 324 326 327 327 326 325 323 322 318 311 307 307 307 304 301 298 299 300 298 296 296 297 299 299 299 299 298 297 296 298 300 301 300 299 299 299 298 298 299 299 299 299 299 299 298 296 295 294 293 292 290 289
288 289 290 291 292 293 293 294 295 296 297 299 301 302 304 304 305 306 306 306 307 307 309 310 312 314 313 313 315 318 320 322 323 324 325 327 329 329 328 326 324 322 318 312 309 307 305 301 301 302 303 301 297 295 294 295 296 297 298 298 297 296 295 296 297 298 298 299 299 299 300 300 300 300 299 299 298 298 297 297 296 295 295 294 293 290
289 290 290 291 292 292 293 294 295 297 298 300 301 303 304 305 306 306 306 307 309 310 311 313 315 316 315 315 318 321 323 324 325 326 326 328 329 330 329 327 324 321 317 313 311 308 305 302 302 303 302 300 297 295 293 294 294 295 296 296 296 296 296 297 297 298 299 299 299 300 301 301 301 299 297 297 297 297 298 297 296 295 295 295 294 293
287 288 288 289 290 291 292 293 295 296 298 300 302 303 305 306 306 307 307 309 311 313 315 316 317 317 315 317 319 321 322 323 325 327 327 329 331 331 330 328 325 322 317 314 311 309 306 304 304 302 299 296 295 295 295 295 294 293 294 295 296 296 296 296 297 299 300 299 299 300 301 301 299 297 296 296 296 296 296 296 295 294 294 293 293 293
284 285 286 288 289 290 291 292 294 296 299 300 302 304 306 307 308 309 311 312 314 316 319 320 319 318 317 318 320 321 320 320 322 324 326 328 331 332 330 328 325 322 319 316 313 309 306 305 303 300 297 294 293 294 296 297 295 294 294 294 295 295 295 295 297 299 300 299 299 300 300 298 297 295 295 295 294 294 294 295 295 295 294 292 292 292
283 284 285 286 287 288 290 292 295 297 299 301 303 304 307 308 309 311 314 316 317 320 322 321 319 317 317 318 320 321 320 320 320 322 324 327 329 330 328 327 325 322 319 317 313 310 308 305 303 300 297 294 293 293 295 297 297 296 295 294 293 293 293 294 296 298 299 299 299 299 299 297 295 294 293 293 292 292 293 294 295 295 294 293 292 292
283 284 285 286 287 289 291 293 296 298 300 301 303 305 307 309 311 313 315 318 321 323 323 323 320 317 316 317 319 320 320 319 319 320 322 325 328 328 326 325 323 320 318 316 314 312 309 307 304 301 297 294 292 292 294 296 297 297 295 293 292 292 292 293 295 297 298 298 299 299 299 298 296 295 293 291 290 291 292 293 294 295 295 295 294 293
283 284 284 285 287 289 291 294 296 298 300 302 304 306 308 311 314 317 319 322 325 327 327 325 322 318 316 317 318 318 319 318 318 318 320 324 326 326 325 323 321 318 317 315 313 312 310 308 306 304 301 298 295 292 292 293 295 295 294 293 292 292 292 292 294 297 298 298 299 299 298 297 296 294 292 290 289 289 290 291 293 294 296 295 294 294
Height
1472 1472 1471 1471 1471 1471 1470 1470 1469 1468 1467 1466 1466 1465 1465 1464 1463 1462 1462 1461 1461 1460 1460 1460 1459 1459 1458 1458 1457 1457 1456 1456 1455 1454 1454 1453 1452 1452 1451 1451 1451 1450 1450 1449 1449 1448 1447 1447 1446 1446 1445 1445 1444 1444 1443 1442 1442 1441 1441 1440 1439 1438 1438 1437 1436 1436 1435 1434 1433 1432 1432 1431 1430 1430 1429 1428 1428 1427 1426 1426 1425 1425 1424 1424 1424 1423
1471 1471 1470 1470 1469 1469 1469 1469 1468 1466 1466 1465 1464 1463 1463 1462 1462 1461 1461 1460 1460 1459 1459 1458 1458 1457 1457 1456 1456 1455 1455 1454 1453 1453 1452 1452 1451 1451 1450 1450 1449 1449 1448 1448 1447 1447 1446 1446 1445 1444 1444 1443 1443 1442 1441 1441 1440 1439 1439 1438 1437 1436 1436 1435 1434 1434 1433 1432 1431 1431 1430 1429 1428 1427 1427 1426 1426 1425 1424 1424 1423 1423 1422 1422 1421 1421
1469 1469 1468 1468 1468 1467 1467 1467 1466 1465 1464 1463 1462 1461 1461 1460 1460 1459 1459 1458 1458 1458 1457 1456 1456 1456 1455 1455 1454 1454 1453 1452 1452 1451 1451 1450 1449 1449 1448 1448 1447 1447 1447 1446 1446 1445 1445 1444 1443 1443 1442 1441 1441 1440 1440 1439 1438 1437 1437 1436 1436 1435 1434 1433 1432 1432 1431 1430 1429 1428 1428 1427 1426 1425 1425 1424 1423 1423 1422 1421 1421 1420 1420 1419 1419 1419
1467 1467 1466 1466 1466 1466 1466 1465 1465 1464 1462 1462 1461 1460 1459 1459 1458 1457 1457 1457 1456 1456 1456 1455 1455 1454 1453 1453 1452 1452 1451 1451 1450 1450 1449 1448 1448 1447 1447 1446 1446 1446 1445 1445 1444 1444 1443 1442 1442 1441 1441 1440 1439 1438 1438 1437 1436 1436 1435 1434 1433 1433 1432 1431 1431 1430 1429 1428 1427 1426 1426 1425 1424 1423 1422 1421 1421 1420 1420 1419 1419 1418 1417 1417 1417 1416
1466 1465 1465 1465 1465 1464 1464 1464 1463 1462 1461 1460 1459 1459 1458 1457 1456 1456 1456 1455 1455 1454 1454 1453 1453 1452 1451 1451 1451 1450 1449 1449 1448 1448 1447 1446 1446 1446 1445 1445 1444 1444 1444 1443 1442 1442 1441 1441 1440 1439 1439 1438 1437 1436 1436 1435 1434 1433 1433 1432 1431 1431 1430 1429 1428 1427 1427 1426 1425 1424 1423 1423 1422 1421 1420 1419 1418 1418 1417 1417 1416 1416 1415 1415 1414 1414
1464 1464 1463 1463 1463 1462 1462 1462 1461 1460 1459 1458 1458 1457 1456 1456 1455 1454 1454 1453 1453 1452 1452 1451 1451 1450 1450 1449 1449 1448 1448 1447 1446 1446 1445 1445 1444 1444 1443 1443 1443 1442 1442 1441 1441 1440 1439 1439 1438 1437 1436 1436 1435 1434 1434 1433 1432 1431 1431 1430 1429 1428 1428 1427 1426 1426 1425 1424 1423 1422 1421 1421 1420 1419 1418 1417 1416 1416 1415 1414 1414 1413 1412 1412 1411 1411
1462 1462 1462 1461 1461 1461 1460 1460 1459 1459 1458 1456 1456 1455 1455 1454 1453 1453 1452 1451 1451 1450 1450 1449 1449 1449 1448 1447 1447 1446 1446 1445 1445 1444 1444 1443 1442 1442 1441 1441 1441 1440 1440 1439 1438 1438 1437 1436 1436 1435 1434 1434 1433 1432 1431 1431 1430 1429 1428 1428 1427 1426 1426 1425 1424 1423 1422 1421 1421 1420 1419 1418 1417 1416 1416 1415 1414 1413 1412 1412 1411 1411 1410 1409 1409 1409
1461 1461 1461 1460 1459 1459 1459 1458 1458 1457 1456 1455 1454 1453 1452 1452 1451 1451 1450 1450 1449 1448 1448 1447 1447 1447 1446 1446 1445 1444 1444 1443 1443 1442 1441 1441 1441 1440 1439 1439 1439 1438 1437 1437 1436 1436 1435 1434 1433 1433 1432 1431 1431 1430 1429 1429 1428 1427 1426 1426 1425 1424 1423 1422 1421 1421 1420 1419 1418 1417 1416 1416 1415 1414 1413 1412 1411 1411 1410 1409 1409 1408 1407 1407 1406 1406
1460 1459 1459 1458 1458 1457 1456 1456 1456 1456 1455 1454 1453 1451 1450 1449 1449 1449 1448 1448 1447 1447 1446 1445 1445 1444 1444 1444 1443 1442 1441 1441 1440 1440 1439 1439 1438 1437 1437 1437 1436 1436 1435 1435 1434 1433 1433 1432 1431 1431 1430 1429 1429 1428 1427 1426 1426 1425 1424 1423 1422 1422 1421 1420 1419 1418 1417 1416 1416 1415 1414 1413 1412 1411 1410 1410 1409 1408 1407 1406 1406 1405 1405 1404 1404 1404
1459 1458 1457 1457 1456 1456 1455 1455 1455 1455 1454 1453 1452 1451 1450 1448 1447 1446 1446 1445 1445 1445 1444 1443 1443 1442 1441 1441 1441 1440 1439 1439 1438 1438 1437 1436 1436 1435 1435 1434 1434 1433 1433 1432 1432 1431 1430 1430 1429 1428 1428 1427 1426 1426 1425 1424 1423 1422 1422 1421 1420 1419 1419 1418 1417 1416 1415 1414 1413 1412 1411 1410 1409 1408 1408 1407 1406 1405 1404 1404 1403 1402 1402 1401 1401 1401
1457 1457 1456 1456 1455 1455 1454 1453 1453 1452 1452 1451 1451 1450 1450 1448 1447 1445 1443 1442 1442 1442 1442 1441 1441 1440 1439 1438 1438 1437 1437 1436 1436 1436 1435 1435 1434 1433 1433 1432 1432 1431 1431 1430 1430 1429 1428 1427 1427 1426 1426 1425 1424 1423 1422 1422 1421 1420 1419 1419 1418 1417 1416 1415 1414 1413 1412 1411 1410 1409 1408 1407 1406 1406 1405 1404 1403 1402 1401 1401 1400 1399 1399 1398 1398 1397
1456 1455 1455 1454 1454 1453 1452 1452 1452 1451 1451 1450 1449 1448 1448 1447 1446 1445 1443 1441 1440 1439 1439 1439 1439 1438 1437 1436 1435 1435 1434 1434 1433 1432 1432 1432 1431 1431 1430 1430 1429 1429 1428 1428 1427 1426 1426 1425 1425 1424 1423 1422 1422 1421 1420 1419 1419 1418 1417 1416 1416 1415 1413 1412 1411 1411 1410 1409 1407 1406 1406 1405 1404 1403 1402 1401 1401 1400 1399 1398 1397 1396 1396 1395 1395 1395
1455 1454 1454 1453 1452 1452 1451 1451 1450 1450 1450 1449 1448 1447 1446 1446 1445 1444 1443 1441 1439 1438 1437 1436 1436 1436 1436 1435 1434 1432 1431 1431 1430 1430 1429 1429 1428 1428 1427 1427 1426 1426 1426 1425 1425 1424 1424 1423 1422 1422 1421 1420 1420 1419 1418 1417 1416 1416 1415 1414 1413 1412 1411 1410 1409 1408 1407 1406 1405 1404 1403 1402 1401 1400 1399 1399 1398 1397 1396 1395 1395 1394 1393 1392 1392 1391
1453 1453 1452 1452 1451 1451 1451 1450 1450 1449 1449 1449 1448 1447 1446 1444 1443 1442 1441 1440 1438 1437 1436 1435 1433 1433 1433 1433 1432 1431 1430 1429 1428 1427 1427 1427 1426 1426 1425 1424 1424 1423 1423 1422 1422 1421 1421 1420 1420 1419 1419 1418 1417 1416 1416 1415 1414 1413 1412 1411 1410 1409 1408 1407 1406 1405 1404 1403 1402 1401 1400 1399 1398 1397 1396 1396 1395 1394 1393 1392 1392 1391 1390 1390 1389 1389
1452 1452 1451 1451 1450 1450 1450 1449 1449 1449 1448 1448 1447 1446 1445 1444 1442 1441 1440 1438 1436 1435 1434 1433 1432 1431 1431 1431 1431 1429 1428 1427 1426 1425 1424 1424 1424 1424 1423 1422 1421 1421 1421 1420 1419 1419 1419 1418 1417 1416 1416 1415 1415 1414 1413 1412 1411 1411 1410 1409 1408 1407 1406 1405 1404 1403 1402 1401 1400 1399 1398 1396 1396 1395 1394 1393 1392 1391 1391 1390 1389 1388 1387 1386 1386 1386
1451 1451 1451 1450 1449 1449 1449 1449 1448 1448 1447 1446 1446 1445 1444 1443 1441 1440 1439 1437 1436 1434 1433 1431 1429 1428 1428 1429 1430 1428 1427 1426 1424 1423 1422 1421 1422 1422 1422 1420 1419 1418 1418 1418 1417 1416 1416 1415 1415 1414 1413 1413 1412 1411 1411 1410 1409 1408 1407 1406 1406 1404 1403 1402 1401 1400 1399 1398 1397 1396 1395 1394 1393 1392 1391 1390 1389 1388 1387 1387 1386 1385 1384 1384 1383 1382
1451 1450 1449 1448 1448 1448 1448 1448 1447 1447 1446 1445 1445 1444 1443 1442 1441 1440 1438 1437 1436 1434 1433 1432 1430 1428 1426 1426 1427 1428 1426 1425 1423 1421 1420 1419 1419 1420 1420 1419 1417 1416 1416 1415 1415 1414 1413 1413 1412 1412 1411 1411 1410 1409 1409 1408 1407 1406 1405 1404 1403 1402 1401 1400 1399 1398 1397 1396 1395 1394 1393 1391 1391 1389 1388 1387 1386 1386 1385 1384 1383 1382 1381 1381 1380 1380
1449 1449 1448 1447 1447 1446 1446 1446 1446 1445 1445 1444 1443 1442 1441 1441 1440 1439 1438 1437 1436 1434 1433 1432 1431 1429 1427 1424 1425 1426 1426 1424 1421 1419 1418 1416 1416 1417 1418 1417 1416 1414 1413 1412 1412 1411 1411 1411 1410 1409 1409 1408 1408 1407 1406 1406 1405 1404 1403 1401 1401 1399 1398 1397 1396 1395 1394 1393 1392 1391 1390 1389 1388 1387 1386 1385 1383 1382 1381 1381 1380 1379 1378 1378 1377 1376
1448 1447 1447 1446 1446 1445 1445 1445 1445 1444 1444 1443 1442 1441 1440 1439 1439 1438 1437 1436 1435 1434 1433 1432 1431 1429 1428 1425 1424 1424 1424 1423 1421 1418 1416 1414 1414 1415 1416 1415 1413 1412 1411 1410 1410 1409 1409 1408 1408 1407 1407 1406 1406 1405 1404 1403 1402 1401 1400 1399 1398 1397 1396 1395 1394 1393 1391 1391 1389 1388 1387 1386 1385 1384 1383 1381 1381 1379 1378 1377 1377 1376 1375 1375 1374 1373
1446 1446 1446 1445 1445 1444 1443 1443 1443 1443 1442 1442 1441 1440 1439 1438 1438 1437 1436 1436 1435 1434 1433 1432 1430 1428 1426 1424 1423 1422 1423 1422 1420 1417 1415 1413 1412 1412 1413 1412 1411 1409 1408 1407 1407 1407 1406 1406 1405 1405 1404 1404 1403 1402 1401 1400 1399 1398 1397 1396 1395 1394 1393 1392 1391 1390 1389 1388 1386 1385 1384 1383 1382 1381 1380 1378 1377 1376 1375 1374 1374 1373 1372 1372 1371 1371
1445 1445 1444 1444 1444 1443 1442 1442 1442 1442 1441 1441 1440 1439 1438 1437 1437 1436 1435 1435 1434 1433 1432 1431 1429 1427 1425 1423 1421 1421 1421 1421 1419 1416 1413 1411 1410 1410 1411 1411 1409 1407 1405 1405 1405 1405 1404 1403 1402 1401 1401 1401 1400 1399 1398 1397 1396 1395 1394 1393 1392 1391 1390 1389 1388 1387 1386 1385 1383 1382 1381 1380 1379 1377 1376 1375 1374 1373 1372 1371 1371 1370 1369 1369 1368 1367
1444 1443 1443 1443 1443 1442 1441 1441 1440 1440 1440 1440 1440 1439 1438 1437 1436 1435 1434 1434 1433 1432 1430 1429 1427 1425 1424 1422 1421 1420 1421 1420 1418 1416 1412 1409 1407 1407 1409 1409 1407 1405 1403 1402 1402 1402 1401 1400 1399 1399 1398 1398 1397 1396 1395 1394 1393 1392 1391 1390 1389 1388 1387 1386 1385 1383 1382 1381 1380 1379 1378 1376 1376 1374 1373 1372 1371 1370 1369 1368 1368 1367 1366 1366 1365 1364
1442 1442 1441 1441 1441 1440 1440 1439 1439 1439 1439 1439 1438 1438 1437 1436 1436 1435 1434 1433 1432 1430 1428 1426 1425 1423 1422 1421 1420 1419 1419 1418 1417 1415 1412 1409 1406 1405 1407 1406 1405 1403 1401 1400 1400 1399 1398 1397 1396 1396 1395 1395 1394 1393 1392 1391 1390 1389 1388 1387 1386 1385 1383 1382 1381 1380 1379 1378 1377 1376 1375 1374 1373 1371 1370 1369 1368 1367 1366 1365 1364 1363 1363 1362 1361 1361
1441 1440 1440 1440 1439 1439 1438 1438 1438 1438 1438 1438 1437 1436 1436 1436 1436 1435 1434 1432 1430 1428 1426 1424 1422 1421 1420 1419 1418 1417 1417 1416 1415 1414 1412 1409 1406 1404 1404 1404 1403 1401 1398 1398 1397 1396 1395 1394 1393 1393 1392 1391 1391 1390 1389 1388 1387 1386 1385 1384 1383 1381 1380 1379 1378 1377 1376 1375 1374 1373 1372 1371 1370 1369 1367 1366 1365 1364 1363 1362 1361 1360 1359 1359 1358 1357
1439 1438 1438 1438 1438 1437 1437 1438 1438 1438 1438 1437 1437 1436 1436 1436 1434 1433 1431 1430 1428 1427 1425 1423 1421 1419 1417 1417 1416 1415 1415 1415 1414 1412 1411 1408 1404 1402 1402 1402 1401 1399 1396 1395 1395 1394 1392 1391 1390 1389 1389 1388 1387 1387 1386 1385 1384 1383 1382 1381 1380 1379 1377 1376 1376 1375 1373 1372 1371 1370 1369 1368 1366 1365 1364 1363 1362 1361 1360 1359 1358 1357 1356 1355 1355 1354
1437 1437 1437 1436 1437 1437 1438 1439 1439 1438 1437 1436 1436 1435 1435 1433 1431 1430 1429 1428 1427 1426 1424 1421 1419 1417 1416 1415 1413 1413 1413 1412 1412 1411 1410 1407 1403 1400 1400 1401 1400 1397 1394 1392 1392 1391 1390 1388 1386 1386 1386 1385 1384 1384 1383 1382 1381 1380 1379 1378 1377 1376 1375 1374 1373 1371 1371 1369 1368 1367 1366 1364 1363 1362 1361 1360 1359 1358 1357 1356 1356 1355 1353 1352 1351 1350
1436 1436 1436 1436 1436 1436 1436 1436 1435 1434 1434 1434 1433 1433 1432 1431 1429 1428 1426 1426 1425 1424 1422 1420 1417 1415 1413 1413 1412 1411 1411 1410 1410 1409 1408 1406 1402 1399 1398 1398 1398 1396 1392 1390 1389 1388 1387 1385 1384 1383 1382 1382 1381 1380 1380 1379 1378 1377 1376 1375 1374 1373 1372 1371 1369 1368 1367 1366 1365 1364 1362 1361 1361 1360 1358 1357 1356 1356 1355 1354 1353 1352 1351 1350 1348 1347
1435 1435 1435 1435 1434 1434 1434 1433 1433 1432 1432 1431 1431 1431 1430 1429 1427 1426 1424 1424 1423 1422 1420 1418 1416 1414 1412 1411 1410 1409 1409 1408 1408 1407 1406 1405 1402 1399 1397 1397 1396 1394 1391 1388 1386 1385 1385 1383 1381 1381 1380 1379 1378 1377 1377 1376 1375 1374 1373 1372 1371 1370 1368 1367 1366 1365 1364 1363 1362 1361 1360 1359 1358 1357 1356 1355 1354 1353 1352 1351 1350 1349 1348 1347 1345 1344
1433 1433 1433 1432 1432 1432 1431 1431 1431 1430 1430 1430 1429 1429 1428 1427 1426 1424 1423 1422 1422 1420 1418 1417 1415 1414 1411 1410 1408 1407 1406 1406 1406 1406 1405 1403 1401 1398 1396 1396 1394 1392 1391 1386 1382 1380 1381 1381 1380 1379 1377 1376 1376 1375 1374 1373 1372 1371 1369 1368 1367 1366 1365 1364 1363 1362 1361 1360 1359 1358 1357 1356 1355 1354 1353 1352 1351 1350 1350 1349 1348 1347 1345 1344 1342 1341
1431 1431 1431 1430 1430 1430 1429 1429 1429 1428 1428 1428 1427 1427 1426 1426 1425 1423 1422 1421 1420 1419 1416 1415 1414 1412 1411 1409 1406 1405 1404 1405 1406 1405 1404 1402 1399 1396 1395 1394 1393 1391 1390 1387 1382 1377 1375 1376 1377 1377 1376 1375 1373 1372 1371 1370 1369 1367 1366 1365 1364 1363 1362 1361 1360 1359 1358 1357 1356 1355 1354 1353 1352 1351 1350 1349 1348 1347 1347 1346 1345 1344 1343 1341 1339 1338
1428 1428 1428 1428 1428 1428 1427 1427 1427 1426 1426 1426 1425 1425 1424 1423 1422 1421 1420 1419 1418 1417 1415 1414 1412 1411 1410 1409 1407 1404 1402 1403 1404 1404 1402 1401 1398 1395 1394 1393 1391 1390 1390 1389 1385 1380 1373 1371 1371 1374 1374 1372 1370 1369 1368 1367 1366 1365 1363 1362 1361 1360 1359 1359 1358 1356 1355 1354 1353 1352 1351 1350 1349 1348 1347 1346 1345 1345 1344 1343 1342 1341 1340 1338 1336 1335
1426 1426 1426 1426 1426 1426 1426 1426 1425 1425 1424 1424 1423 1423 1422 1421 1420 1419 1418 1417 1416 1415 1414 1412 1411 1410 1409 1408 1406 1404 1401 1401 1402 1402 1401 1399 1396 1394 1393 1392 1390 1388 1388 1388 1387 1384 1378 1371 1367 1368 1370 1369 1368 1366 1365 1365 1364 1363 1361 1360 1358 1357 1357 1356 1355 1354 1352 1351 1350 1349 1348 1347 1346 1345 1344 1343 1342 1341 1340 1340 1339 1339 1337 1335 1333 1331
1425 1425 1425 1425 1425 1424 1424 1424 1423 1422 1422 1421 1421 1421 1420 1419 1418 1417 1416 1415 1414 1413 1412 1411 1409 1408 1407 1406 1404 1402 1400 1400 1400 1401 1400 1398 1395 1392 1391 1391 1389 1387 1385 1385 1384 1383 1380 1374 1369 1366 1365 1366 1366 1365 1363 1362 1361 1361 1359 1358 1356 1355 1354 1354 1353 1351 1350 1348 1347 1346 1345 1343 1342 1341 1340 1339 1338 1337 1337 1336 1336 1335 1334 1333 1331 1329
1423 1423 1423 1423 1423 1422 1422 1421 1421 1421 1420 1420 1419 1418 1418 1417 1416 1415 1414 1413 1412 1411 1411 1409 1408 1406 1405 1403 1401 1399 1398 1398 1399 1399 1398 1396 1394 1391 1390 1389 1387 1386 1384 1382 1381 1380 1378 1375 1371 1367 1364 1361 1361 1362 1361 1360 1359 1358 1357 1356 1355 1353 1352 1351 1350 1348 1346 1345 1344 1342 1341 1340 1339 1337 1336 1336 1335 1334 1333 1332 1332 1332 1331 1330 1329 1327
1421 1421 1421 1421 1421 1420 1420 1419 1419 1418 1418 1417 1417 1416 1416 1415 1414 1413 1412 1411 1410 1409 1408 1407 1406 1405 1404 1402 1400 1397 1396 1397 1398 1398 1396 1395 1393 1391 1388 1387 1386 1385 1383 1381 1380 1378 1375 1372 1371 1369 1365 1360 1357 1357 1359 1359 1357 1356 1355 1354 1353 1351 1350 1348 1347 1345 1343 1342 1340 1339 1338 1336 1335 1334 1333 1332 1331 1331 1330 1329 1329 1328 1328 1328 1327 1326
1420 1420 1419 1419 1419 1418 1417 1417 1417 1416 1416 1415 1415 1414 1413 1412 1412 1411 1410 1409 1408 1407 1406 1406 1404 1403 1402 1401 1399 1397 1395 1395 1396 1396 1395 1394 1392 1390 1387 1386 1385 1384 1383 1380 1378 1376 1374 1371 1368 1367 1365 1361 1357 1354 1354 1355 1355 1354 1352 1351 1350 1349 1347 1346 1345 1343 1341 1339 1337 1336 1335 1334 1333 1331 1330 1329 1328 1328 1327 1326 1326 1325 1324 1324 1323 1323
1418 1417 1417 1417 1416 1416 1416 1415 1415 1414 1414 1413 1412 1412 1411 1411 1410 1409 1408 1407 1406 1406 1405 1403 1402 1401 1401 1399 1398 1396 1395 1394 1394 1394 1393 1392 1391 1389 1386 1384 1383 1383 1382 1380 1377 1375 1373 1370 1366 1364 1363 1361 1358 1355 1351 1351 1351 1350 1349 1348 1347 1346 1344 1343 1342 1341 1339 1336 1335 1333 1332 1331 1330 1329 1327 1326 1325 1324 1323 1322 1321 1321 1320 1320 1319 1318
1416 1415 1415 1415 1414 1414 1413 1413 1412 1412 1411 1411 1410 1410 1409 1408 1408 1407 1406 1405 1404 1403 1402 1401 1401 1400 1399 1397 1396 1395 1394 1393 1392 1392 1391 1390 1389 1387 1386 1383 1381 1381 1381 1379 1377 1375 1373 1370 1366 1363 1360 1357 1356 1354 1352 1350 1348 1346 1345 1345 1344 1343 1342 1341 1340 1338 1336 1334 1332 1331 1330 1328 1327 1326 1324 1323 1322 1321 1319 1318 1317 1316 1316 1315 1314 1313
1414 1413 1413 1413 1412 1412 1411 1411 1411 1410 1409 1409 1408 1407 1407 1406 1406 1405 1404 1403 1402 1401 1400 1399 1398 1397 1396 1396 1395 1394 1393 1392 1391 1390 1389 1388 1387 1386 1384 1382 1380 1379 1378 1377 1376 1375 1372 1370 1367 1363 1360 1356 1352 1350 1349 1349 1347 1345 1343 1341 1340 1339 1339 1339 1338 1336 1334 1332 1330 1328 1326 1325 1324 1323 1321 1320 1319 1317 1316 1314 1313 1312 1312 1311 1310 1308
1412 1411 1411 1411 1411 1410 1409 1409 1408 1408 1407 1407 1406 1405 1405 1404 1403 1402 1401 1401 1400 1399 1398 1397 1396 1395 1394 1393 1392 1391 1391 1390 1389 1388 1387 1386 1385 1384 1382 1381 1379 1377 1376 1375 1374 1373 1371 1368 1365 1362 1360 1357 1353 1349 1346 1346 1345 1344 1342 1340 1336 1334 1335 1335 1334 1333 1331 1329 1327 1325 1323 1322 1321 1320 1318 1317 1316 1314 1313 1311 1310 1309 1309 1308 1306 1304
1410 1409 1409 1409 1409 1408 1407 1407 1406 1406 1405 1405 1404 1403 1403 1402 1401 1400 1399 1398 1397 1396 1395 1394 1393 1392 1391 1391 1390 1389 1389 1388 1387 1386 1385 1384 1383 1382 1381 1379 1377 1376 1374 1373 1371 1370 1369 1367 1364 1361 1359 1356 1353 1349 1346 1344 1343 1343 1342 1340 1336 1332 1331 1331 1331 1330 1328 1326 1324 1323 1321 1319 1318 1316 1315 1314 1312 1311 1310 1309 1307 1306 1305 1304 1303 1302
1408 1407 1407 1407 1406 1406 1406 1405 1405 1404 1403 1403 1402 1401 1401 1400 1399 1398 1396 1396 1395 1394 1393 1392 1391 1390 1388 1387 1387 1387 1386 1386 1385 1384 1383 1382 1381 1380 1379 1377 1376 1375 1373 1371 1369 1368 1366 1365 1363 1360 1358 1356 1352 1348 1344 1341 1340 1341 1340 1338 1335 1331 1327 1326 1326 1327 1326 1323 1321 1320 1319 1317 1315 1313 1311 1310 1308 1306 1306 1305 1304 1302 1301 1300 1299 1298
1406 1406 1405 1405 1405 1404 1404 1403 1403 1402 1401 1401 1400 1400 1399 1398 1397 1396 1394 1393 1392 1391 1391 1390 1388 1387 1386 1384 1384 1384 1383 1383 1382 1381 1381 1380 1379 1378 1376 1375 1374 1373 1371 1370 1367 1365 1363 1362 1361 1359 1356 1354 1352 1348 1343 1340 1337 1337 1337 1336 1335 1332 1327 1322 1321 1323 1323 1321 1319 1317 1316 1314 1312 1310 1308 1306 1304 1303 1301 1301 1300 1299 1298 1297 1295 1294
1404 1404 1403 1403 1403 1402 1402 1401 1401 1400 1400 1399 1398 1398 1397 1396 1395 1394 1392 1391 1390 1389 1388 1387 1386 1385 1383 1382 1381 1380 1380 1380 1380 1379 1378 1377 1376 1376 1374 1373 1372 1371 1370 1368 1366 1363 1361 1359 1357 1356 1355 1353 1351 1347 1343 1339 1336 1334 1333 1333 1333 1332 1328 1323 1320 1319 1318 1317 1316 1314 1312 1311 1309 1306 1304 1302 1301 1299 1298 1297 1295 1294 1293 1292 1291 1290
1402 1402 1401 1401 1401 1401 1400 1399 1399 1398 1398 1397 1396 1396 1395 1394 1393 1392 1391 1390 1389 1387 1386 1385 1384 1383 1381 1380 1379 1378 1377 1376 1376 1376 1376 1375 1375 1374 1372 1371 1370 1368 1367 1366 1364 1362 1360 1357 1355 1353 1352 1351 1348 1346 1342 1339 1336 1333 1331 1330 1330 1329 1326 1323 1320 1318 1316 1313 1312 1311 1309 1308 1306 1304 1301 1298 1296 1295 1294 1293 1291 1289 1288 1287 1287 1286
1401 1400 1400 1399 1399 1399 1398 1398 1397 1396 1396 1396 1395 1394 1393 1392 1391 1391 1389 1388 1387 1386 1385 1384 1383 1381 1380 1378 1377 1376 1375 1373 1373 1373 1373 1372 1372 1371 1370 1369 1368 1366 1365 1363 1362 1360 1359 1356 1354 1351 1350 1347 1345 1342 1340 1338 1335 1331 1328 1327 1326 1325 1322 1319 1317 1316 1314 1311 1309 1307 1306 1305 1304 1301 1298 1295 1293 1291 1290 1289 1287 1286 1284 1283 1282 1281
1399 1398 1398 1397 1397 1397 1396 1396 1396 1395 1394 1394 1393 1392 1391 1391 1390 1389 1387 1386 1385 1384 1383 1382 1381 1380 1379 1377 1376 1374 1373 1371 1371 1370 1370 1369 1369 1368 1367 1366 1365 1364 1363 1361 1359 1357 1356 1354 1352 1351 1349 1346 1341 1337 1335 1335 1333 1331 1327 1325 1323 1321 1319 1316 1314 1313 1312 1310 1307 1305 1303 1303 1301 1298 1295 1292 1289 1287 1285 1284 1284 1283 1281 1280 1278 1277
1397 1396 1396 1396 1396 1395 1395 1394 1394 1393 1392 1392 1391 1391 1390 1389 1388 1387 1386 1385 1384 1383 1382 1381 1380 1378 1377 1376 1375 1374 1373 1371 1369 1368 1367 1366 1366 1365 1364 1363 1362 1361 1359 1358 1356 1355 1353 1351 1350 1349 1347 1345 1341 1336 1331 1330 1330 1328 1326 1324 1321 1319 1316 1313 1311 1310 1309 1307 1305 1303 1302 1301 1298 1296 1292 1289 1286 1283 1281 1280 1279 1278 1278 1277 1275 1273
1395 1395 1395 1394 1394 1393 1393 1392 1392 1391 1391 1390 1390 1389 1388 1387 1386 1386 1384 1383 1382 1381 1381 1379 1378 1377 1376 1375 1374 1373 1372 1370 1369 1367 1366 1365 1364 1362 1361 1360 1359 1357 1356 1354 1353 1351 1350 1348 1347 1346 1345 1343 1340 1336 1331 1328 1326 1325 1324 1322 1320 1317 1314 1311 1309 1307 1306 1304 1302 1300 1299 1298 1296 1294 1291 1287 1283 1278 1276 1275 1274 1273 1273 1273 1271 1270
1394 1393 1393 1392 1392 1391 1391 1391 1391 1390 1389 1388 1388 1387 1386 1386 1385 1384 1383 1382 1381 1380 1379 1378 1377 1376 1375 1373 1372 1371 1371 1369 1367 1366 1365 1363 1362 1361 1360 1358 1357 1355 1353 1351 1350 1348 1346 1345 1343 1342 1342 1342 1340 1336 1331 1327 1324 1322 1321 1319 1317 1316 1313 1309 1307 1305 1304 1302 1300 1297 1296 1294 1292 1291 1289 1286 1281 1276 1272 1270 1269 1268 1268 1268 1267 1266
1392 1391 1391 1391 1391 1390 1390 1389 1389 1388 1388 1387 1386 1385 1385 1384 1383 1382 1381 1381 1380 1379 1378 1377 1376 1375 1374 1372 1371 1370 1369 1368 1366 1365 1363 1362 1361 1360 1358 1357 1356 1354 1351 1349 1346 1345 1343 1341 1339 1337 1337 1338 1338 1336 1333 1328 1324 1321 1318 1315 1314 1313 1311 1308 1305 1303 1301 1300 1297 1295 1293 1291 1289 1287 1286 1283 1279 1274 1269 1266 1264 1263 1263 1264 1264 1262